User: anonymous   Login
Location: Unspecified
(0.0000°N, 0.0000°E)
Time: 18:44:16
(UTC+00:00)
Language:

FREEDOM - Orbit

View from above orbital plane
View from above orbital plane
View from above satellite
View from above satellite

Ground track
Ground track

The orbit data is extracted from the following two-line orbital elements,

1 41932U 98067KU  17145.38666145  .00009829  00000-0  13193-3 0  9994
2 41932 051.6392 149.5850 0004749 174.6394 185.4651 15.58629304019987
Epoch (UTC): 25 May 2017 09:16:47
Eccentricity: 0.0004749
inclination: 51.6392°
perigee height: 388 km
apogee height: 395 km
right ascension of ascending node: 149.5850°
argument of perigee: 174.6394°
revolutions per day: 15.58629304
mean anomaly at epoch: 185.4651°
orbit number at epoch: 1998

The dashed part of the orbit path shows where the satellite is in the earth's shadow,  

DLR